User: anonymous   Login
Location: Unspecified
(0.0000°N, 0.0000°E)
Time: 10:27:20
(UTC+00:00)
Language:

SO-50 - Orbit

View from above orbital plane
View from above orbital plane
View from above satellite
View from above satellite

Ground track
Ground track

The orbit data is extracted from the following two-line orbital elements,

1 27607U 02058C   20219.45041129 -.00000060  00000-0  11844-4 0  9996
2 27607 064.5536 221.5060 0041686 161.8225 198.4379 14.75650015948106
Epoch (UTC): 06 August 2020 10:48:35
Eccentricity: 0.0041686
inclination: 64.5536°
perigee height: 614 km
apogee height: 672 km
right ascension of ascending node: 221.5060°
argument of perigee: 161.8225°
revolutions per day: 14.75650015
mean anomaly at epoch: 198.4379°
orbit number at epoch: 94810

The dashed part of the orbit path shows where the satellite is in the earth's shadow,  

DLR